Retour au catalogue

STARLINK-11175

ActifCommunicationsVLEO
NORAD 60191·PAYLOAD·🇺🇸 United States

Lancé Jul 3, 2024 depuis Cape Canaveral Space Force Station

Loading…

Prochains Passages (prochaines 24 heures)

TLE

FraisSource: CelesTrak SupGP

Époque: Sep 15, 2026, 02:49 UTC

1 60191C 24124J   26258.11784722  .00058981  00000+0  48570-3 0  2580
2 60191  53.1566 307.6399 0001191  83.4982 260.9583 15.69687350    12

Suivez STARLINK-11175 en temps réel avec AllMySat

Download on the App Store